Location: Unspecified
(0.0000°N, 0.0000°E)
Time: 17:55:08
(UTC+00:00)

Transit 2A - All Passes

Search period start: 18 January 2020 00:00
Search period end: 28 January 2020 00:00
Orbit: 601 x 957 km, 66.7° (Epoch: 17 January)

Date Brightness Start Highest point End Pass type
(mag) Time Alt. Az. Time Alt. Az. Time Alt. Az.
18 Jan - 07:18:50 10° NNE 07:23:32 29° ENE 07:28:35 10° SE daylight
18 Jan - 09:02:22 10° WNW 09:06:32 21° WSW 09:10:58 10° SSW daylight
18 Jan - 19:54:14 10° SSW 19:59:24 87° ESE 20:04:04 10° NNE visible
19 Jan - 06:45:52 10° NNE 06:49:30 18° ENE 06:53:20 10° ESE daylight
19 Jan - 08:27:22 10° NW 08:32:22 34° WSW 08:37:47 10° S daylight
19 Jan - 19:20:19 10° S 19:25:18 49° ESE 19:29:49 10° NE visible
20 Jan - 06:15:03 10° ENE 06:15:28 10° ENE 06:15:52 10° ENE daylight
20 Jan - 07:52:50 10° NNW 07:58:13 56° WSW 08:04:09 10° S daylight
20 Jan - 18:46:48 10° S 18:51:09 28° ESE 18:55:11 10° NE visible
20 Jan - 20:31:15 10° WSW 20:33:57 15° WNW 20:36:33 10° NW visible
21 Jan - 07:18:38 10° NNW 07:24:07 89° ENE 07:30:11 10° SSE daylight
21 Jan - 18:13:50 10° SSE 18:16:59 16° ESE 18:19:56 10° ENE daylight
21 Jan - 19:55:49 10° SW 19:59:56 26° WNW 20:03:47 10° NNW visible
22 Jan - 06:44:43 10° N 06:50:04 54° ENE 06:55:56 10° SSE daylight
22 Jan - 08:31:27 10° W 08:33:16 11° WSW 08:35:09 10° SW daylight
22 Jan - 19:21:05 10° SW 19:25:55 45° WNW 19:30:19 10° N visible
23 Jan - 06:11:08 10° N 06:16:02 33° ENE 06:21:20 10° SE daylight
23 Jan - 07:55:05 10° WNW 07:59:04 19° WSW 08:03:17 10° SSW daylight
23 Jan - 18:46:46 10° SSW 18:51:52 83° WNW 18:56:28 10° NNE visible
24 Jan - 05:38:00 10° NNE 05:42:00 20° ENE 05:46:13 10° ESE visible
24 Jan - 07:19:58 10° NW 07:24:54 31° WSW 07:30:12 10° S daylight
24 Jan - 18:12:47 10° S 18:17:46 55° ESE 18:22:18 10° NNE daylight
25 Jan - 05:06:00 10° NE 05:07:58 12° ENE 05:09:58 10° E visible
25 Jan - 06:45:21 10° NW 06:50:45 51° WSW 06:56:39 10° S daylight
25 Jan - 17:39:10 10° S 17:43:39 31° ESE 17:47:45 10° NE daylight
25 Jan - 19:24:19 10° W 19:26:25 13° WNW 19:28:27 10° NW visible
26 Jan - 06:11:05 10° NNW 06:16:38 83° WSW 06:22:45 10° SSE daylight
26 Jan - 17:06:05 10° SSE 17:09:28 18° ESE 17:12:40 10° ENE daylight
26 Jan - 18:48:33 10° WSW 18:52:23 23° WNW 18:55:59 10° NNW visible
27 Jan - 05:37:06 10° N 05:42:34 61° ENE 05:48:33 10° SSE visible
27 Jan - 07:25:07 10° WSW 07:25:49 10° WSW 07:26:31 10° WSW daylight
27 Jan - 18:13:42 10° SW 18:18:22 40° WNW 18:22:38 10° N daylight
